EW4983 Weather Reports


time (UTC)temp
F
wind
direction
speed
knots
gust
knots
rain 1hr
in
rain 24hr
in
rain mn
in
humidity
%
barometer
mb
20260510224524 64 59 2.6 8.7 0.00 0.00 0.00 48 1019.5
20260510223023 64 19 2.6 8.7 0.00 0.00 0.00 48 1019.6
20260510221525 64 30 2.6 7.0 0.00 0.00 0.00 48 1019.4
20260510220025 64 32 3.5 10.4 0.00 0.00 0.00 48 1019.5
20260510214521 65 61 3.5 10.4 0.00 0.00 0.00 49 1019.4
20260510213020 65 36 2.6 7.8 0.00 0.00 0.00 45 1019.4
20260510211520 65 344 1.7 7.8 0.00 0.00 0.00 46 1019.3
20260510210023 66 30 3.5 9.6 0.00 0.00 0.00 44 1019.0
20260510204519 67 55 3.5 9.6 0.00 0.00 0.00 45 1019.1
20260510203018 69 40 5.2 12.2 0.00 0.00 0.00 42 1019.0
20260510201517 69 19 2.6 10.4 0.00 0.00 0.00 44 1019.3
20260510200017 69 350 2.6 12.2 0.00 0.00 0.00 42 1019.4
20260510194516 68 36 3.5 8.7 0.00 0.00 0.00 43 1019.3
20260510193015 67 71 3.5 9.6 0.00 0.00 0.00 41 1019.6
20260510191515 67 54 4.3 12.2 0.00 0.00 0.00 40 1019.6
20260510190016 67 49 5.2 15.6 0.00 0.00 0.00 41 1019.5
20260510184513 67 331 1.7 12.2 0.00 0.00 0.00 45 1019.4
20260510183012 68 76 2.6 12.2 0.00 0.00 0.00 40 1019.5
20260510181511 69 57 4.3 13.9 0.00 0.00 0.00 45 1019.3
20260510180010 69 311 4.3 12.2 0.00 0.00 0.00 42 1019.4
20260510174509 69 21 3.5 11.3 0.00 0.00 0.00 42 1019.4
20260510173008 69 342 3.5 9.6 0.00 0.00 0.00 45 1019.3
20260510171507 68 84 3.5 10.4 0.00 0.00 0.00 45 1019.1
20260510170006 68 44 4.3 9.6 0.00 0.00 0.00 43 1019.1
20260510164503 67 28 4.3 11.3 0.00 0.00 0.00 42 1018.9
20260510163059 67 327 4.3 13.0 0.00 0.00 0.00 46 1018.5
20260510161605 66 9 5.2 11.3 0.00 0.00 0.00 47 1018.5
20260510160055 65 53 7.0 13.0 0.00 0.00 0.00 47 1018.4
20260510154557 65 36 6.1 13.0 0.00 0.00 0.00 46 1018.2
20260510153054 64 43 6.1 13.0 0.00 0.00 0.00 48 1018.1
20260510151550 63 63 7.0 13.9 0.00 0.00 0.00 49 1017.9
20260510150118 62 58 3.5 13.9 0.00 0.00 0.00 55 1017.9
20260510144547 60 11 2.6 9.6 0.00 0.00 0.00 57 1018.4
20260510143046 60 39 2.6 7.8 0.00 0.00 0.00 60 1018.5
20260510141545 59 49 3.5 7.8 0.00 0.00 0.00 63 1018.5
20260510140043 59 43 2.6 8.7 0.00 0.00 0.00 63 1018.3
20260510134542 59 34 3.5 13.9 0.00 0.00 0.00 62 1018.0
20260510133038 59 45 3.5 11.3 0.00 0.00 0.00 64 1017.7
20260510131534 59 46 4.3 8.7 0.00 0.00 0.00 65 1016.9
20260510130032 58 100 3.5 13.0 0.00 0.00 0.00 68 1016.5
20260510124530 58 57 3.5 13.0 0.00 0.00 0.00 70 1016.5
20260510123026 57 63 4.3 12.2 0.00 0.00 0.00 73 1016.0
20260510121523 56 40 4.3 10.4 0.00 0.00 0.00 76 1015.5
20260510120026 56 48 3.5 8.7 0.00 0.00 0.00 77 1015.3
20260510114526 56 38 2.6 8.7 0.00 0.00 0.00 79 1015.1
20260510113016 56 47 2.6 5.2 0.00 0.00 0.00 79 1015.0
20260510111514 56 50 2.6 6.1 0.00 0.00 0.00 79 1015.0
20260510110013 57 57 1.7 5.2 0.00 0.00 0.00 78 1014.7
20260510104511 57 58 1.7 5.2 0.00 0.00 0.00 78 1014.6
20260510103009 57 38 1.7 7.8 0.00 0.00 0.00 78 1014.4
20260510101505 57 40 1.7 7.0 0.00 0.00 0.00 78 1014.1
20260510100003 58 42 2.6 5.2 0.00 0.00 0.00 77 1013.7
20260510094505 58 27 1.7 5.2 0.00 0.00 0.00 77 1013.6
20260510093121 59 16 2.6 7.0 0.00 0.00 0.00 76 1013.6
20260510091558 59 53 1.7 4.3 0.00 0.00 0.00 75 1013.2
20260510090058 59 59 0.9 4.3 0.00 0.00 0.00 75 1013.2
20260510084554 60 61 0.9 2.6 0.00 0.00 0.00 75 1012.8
20260510083104 60 61 0.9 4.3 0.00 0.00 0.00 75 1012.4
20260510081551 61 64 1.7 4.3 0.00 0.00 0.00 74 1012.4
20260510080057 60 77 1.7 4.3 0.00 0.00 0.00 75 1012.5
20260510074550 59 16 0.9 1.7 0.00 0.00 0.00 81 1012.4
20260510073054 60 16 0.9 1.7 0.00 0.00 0.00 81 1012.3
20260510071546 60 16 0.9 1.7 0.00 0.00 0.00 79 1012.0
20260510070043 61 16 0.0 0.9 0.00 0.00 0.00 79 1012.1
20260510064541 61 16 0.9 1.7 0.00 0.01 0.00 80 1012.1
20260510063040 61 16 0.0 0.9 0.00 0.01 0.00 78 1011.9
20260510061538 62 16 0.0 1.7 0.00 0.01 0.00 78 1011.9
20260510060043 62 342 0.9 2.6 0.00 0.01 0.00 79 1011.7
20260510054539 62 342 0.0 0.9 0.00 0.01 0.00 77 1011.9
20260510053032 63 342 0.0 0.0 0.00 0.01 0.00 75 1011.8
20260510051533 64 342 0.0 1.7 0.00 0.01 0.00 72 1011.8
20260510050026 65 342 0.0 2.6 0.00 0.01 0.00 72 1012.0
20260510044525 64 342 0.9 5.2 0.00 0.01 0.01 69 1012.1
20260510043027 64 343 0.0 3.5 0.00 0.01 0.01 72 1012.0
20260510041523 63 333 2.6 8.7 0.00 0.01 0.01 73 1011.9
20260510040020 63 167 0.0 0.9 0.00 0.01 0.01 72 1011.3
20260510034522 64 167 0.0 1.7 0.00 0.01 0.01 72 1011.2
20260510033015 65 167 0.9 2.6 0.00 0.01 0.01 69 1010.8
20260510031514 65 167 2.6 5.2 0.00 0.01 0.01 70 1010.5
20260510030018 65 167 2.6 4.3 0.00 0.01 0.01 71 1010.4
20260510024511 66 169 0.9 4.3 0.00 0.01 0.01 69 1010.3
20260510023009 66 168 1.7 4.3 0.00 0.01 0.01 69 1010.0
20260510021509 67 168 0.9 2.6 0.00 0.01 0.01 68 1009.5
20260510020008 68 168 1.7 4.3 0.00 0.01 0.01 68 1009.2
20260510014510 68 167 1.7 3.5 0.00 0.01 0.01 65 1008.6
20260510013008 70 167 0.9 4.3 0.00 0.01 0.01 62 1008.5
20260510011508 72 167 3.5 5.2 0.00 0.01 0.01 60 1008.2
20260510010006 73 186 3.5 5.2 0.00 0.01 0.01 57 1008.1
20260510004505 75 180 2.6 6.1 0.00 0.01 0.01 55 1007.9
20260510003014 76 183 2.6 7.0 0.00 0.01 0.01 53 1007.9
20260510001503 77 206 4.3 8.7 0.00 0.01 0.01 50 1007.8
20260510000004 77 190 5.2 10.4 0.00 0.01 0.01 49 1007.8
20260509234503 78 184 5.2 8.7 0.00 0.01 0.01 48 1007.8
20260509233001 78 159 3.5 9.6 0.00 0.01 0.01 51 1007.9
20260509231503 79 186 2.6 8.7 0.00 0.01 0.01 48 1007.9